Weather History for KSFF - May, 2012

Change the Weather History Date:

Thursday, May 3, 2012

  Actual Average Record
Temperature  
Mean Temperature 45 °F 51 °F  
Max Temperature 50 °F 64 °F - ()
Min Temperature 40 °F 38 °F - ()
Degree Days  
Heating Degree Days 20 14  
Month to date heating degree days 57 42  
Since 1 July heating degree days 5691 5897  
Cooling Degree Days 0 0  
Month to date cooling degree days 0 0  
Year to date cooling degree days 1 0  
Moisture  
Dew Point 40 °F    
Average Humidity 76    
Maximum Humidity 86    
Minimum Humidity 65    
Precipitation  
Precipitation 0.35 in 0.04 in - ()
Month to date precipitation 0.46 0.12  
Year to date precipitation 10.00 6.26  
Sea Level Pressure  
Sea Level Pressure 29.76 in    
Wind  
Wind Speed 6 mph (ESE)    
Max Wind Speed 16 mph    
Max Gust Speed 23 mph    
Visibility 8 miles    
Events Rain , Thunderstorm    
T = Trace of Precipitation, MM = Missing Value Source: NWS Daily Summary

Daily Weather History Graph

Daily Weather History Graph

Search for Another Location

Airport or City:

Trip Planner

Search our weather history database for the weather conditions in past years. The results will help you decide how hot, cold, wet, or windy it might be!

Date:

Astronomy

May. 03, 2012 Rise Set
Actual Time 5:27 AM PDT 8:05 PM PDT
Civil Twilight 4:53 AM PDT 8:40 PM PDT
Nautical Twilight 4:08 AM PDT 9:24 PM PDT
Astronomical Twilight 3:17 AM PDT 10:16 PM PDT
Moon 5:27 PM PDT (5/3) 3:45 AM PDT (5/3)
Length of Visible Light 15h 47m
Length of Day
14h 37m
Waxing Gibbous, 92% of the Moon is Illuminated
May 3
Waxing Gibbous
May 5
Full
May 12
Last Quarter
May 20
New
May 28
First Quarter

Hourly Weather History & Observations

Time (PDT) Temp. Windchill Dew Point Humidity Pressure Visibility Wind Dir Wind Speed Gust Speed Precip Events Conditions
12:53 AM 42.1 °F 38.4 °F 33.1 °F 70% 29.85 in 10.0 mi East 5.8 mph - N/A   Mostly Cloudy
1:53 AM 42.1 °F 39.2 °F 34.0 °F 73% 29.82 in 10.0 mi SE 4.6 mph - N/A   Overcast
2:53 AM 41.0 °F 38.0 °F 34.0 °F 76% 29.81 in 10.0 mi West 4.6 mph - N/A   Overcast
3:53 AM 42.1 °F - 34.0 °F 73% 29.78 in 10.0 mi Calm Calm - N/A   Overcast
4:53 AM 42.1 °F 40.2 °F 35.1 °F 76% 29.76 in 10.0 mi WNW 3.5 mph - N/A   Overcast
5:53 AM 39.9 °F 36.7 °F 34.0 °F 79% 29.74 in 10.0 mi Variable 4.6 mph - N/A   Overcast
6:53 AM 43.0 °F 38.2 °F 34.0 °F 71% 29.71 in 10.0 mi East 8.1 mph - N/A   Mostly Cloudy
7:53 AM 43.0 °F - 35.1 °F 74% 29.73 in 10.0 mi Calm Calm - N/A   Overcast
8:53 AM 45.0 °F 43.5 °F 34.0 °F 65% 29.74 in 10.0 mi Variable 3.5 mph - 0.00 in   Overcast
9:53 AM 46.0 °F 41.4 °F 34.0 °F 63% 29.74 in 10.0 mi ESE 9.2 mph - 0.00 in Rain Light Rain
10:36 AM 44.6 °F 41.4 °F 37.4 °F 76% 29.72 in 8.0 mi East 5.8 mph - 0.01 in Rain Light Rain
10:53 AM 46.0 °F 42.5 °F 37.9 °F 73% 29.74 in 8.0 mi East 6.9 mph - 0.01 in Rain Light Rain
11:53 AM 46.0 °F 41.9 °F 39.0 °F 76% 29.74 in 10.0 mi ESE 8.1 mph - 0.02 in Rain Light Rain
12:05 PM 44.6 °F 40.2 °F 39.2 °F 81% 29.72 in 7.0 mi East 8.1 mph - 0.00 in Rain Light Rain
12:53 PM 45.0 °F 41.8 °F 39.9 °F 82% 29.75 in 6.0 mi East 5.8 mph - 0.03 in Rain Light Rain
1:53 PM 46.9 °F - 42.1 °F 83% 29.75 in 9.0 mi ESE 5.8 mph - 0.03 in Rain Light Rain
2:53 PM 48.9 °F - 43.0 °F 80% 29.74 in 10.0 mi East 4.6 mph - 0.00 in   Overcast
3:53 PM 48.0 °F - 43.0 °F 83% 29.73 in 3.0 mi ENE 8.1 mph - 0.02 in   Haze
4:34 PM 48.2 °F - 44.6 °F 87% 29.72 in 10.0 mi ENE 4.6 mph - N/A   Overcast
4:53 PM 48.9 °F - 43.0 °F 80% 29.73 in 6.0 mi Variable 3.5 mph - 0.00 in Rain Light Rain
5:53 PM 50.0 °F - 45.0 °F 83% 29.74 in 9.0 mi ESE 6.9 mph - 0.00 in Rain Light Rain
6:09 PM 50.0 °F - 44.6 °F 82% 29.73 in 10.0 mi ESE 5.8 mph - 0.01 in Rain Light Rain
6:18 PM 50.0 °F - 44.6 °F 82% 29.73 in 10.0 mi ESE 6.9 mph - 0.01 in   Overcast
6:53 PM 50.0 °F - 45.0 °F 83% 29.74 in 10.0 mi ESE 5.8 mph - 0.01 in   Mostly Cloudy
7:53 PM 48.9 °F - 45.0 °F 86% 29.75 in 10.0 mi ESE 4.6 mph - 0.00 in   Overcast
8:42 PM 48.2 °F - 44.6 °F 87% 29.75 in 6.0 mi East 5.8 mph - 0.02 in Rain , Thunderstorm Light Rain
8:50 PM 48.2 °F - 44.6 °F 87% 29.76 in 1.8 mi ENE 4.6 mph - 0.11 in Rain , Thunderstorm Heavy Rain
8:53 PM 48.0 °F - 45.0 °F 89% 29.76 in 2.0 mi East 9.2 mph - 0.12 in Rain , Thunderstorm Rain
8:56 PM 48.2 °F - 44.6 °F 87% 29.77 in 3.0 mi SSW 9.2 mph - 0.01 in Rain , Thunderstorm Rain
9:03 PM 48.2 °F - 46.4 °F 93% 29.78 in 4.0 mi SSW 13.8 mph 20.7 mph N/A Rain Rain
9:31 PM 48.2 °F - 44.6 °F 87% 29.79 in 5.0 mi SW 11.5 mph 19.6 mph 0.05 in Rain Rain
9:53 PM 48.9 °F - 45.0 °F 86% 29.79 in 10.0 mi South 10.4 mph - 0.09 in Rain Light Rain
10:53 PM 48.0 °F - 44.1 °F 86% 29.81 in 10.0 mi SSW 5.8 mph - 0.02 in Rain Light Rain
11:53 PM 48.0 °F - 41.0 °F 77% 29.84 in 10.0 mi SSW 10.4 mph - 0.00 in   Overcast